Home > Weather > Memmingen > Past weeks

Flag for Germany Past Weather in Memmingen, Bavaria, Germany — Yesterday and Last 2 Weeks

Now
75 °F

Scattered clouds.


Feels Like: 77 °F
Forecast: 61 / 71 °F
Wind: 10 mph from Southwest

Location: Laupheim Airport

Current Time: Aug 28, 2016 at 10:56:20 AM

Latest Report: Aug 28, 2016 at 9:20 AM


Visibility: N/A

Pressure: 30.12 "Hg (28.11 "Hg at 602m altitude)

Humidity: 65%

Dew Point: 63 °F

Location of MemmingenLocation

Past Weather in Memmingen — Graph

°F

Memmingen Temperature Yesterday

Maximum temperature yesterday: 86 °F (at 3:20 PM)
Minimum temperature yesterday: 61 °F (at 5:20 AM)
Average temperature yesterday: 73 °F

High & Low Weather Summary for the Past Weeks

 TemperatureHumidityPressure
High88 °F (Aug 26, 4:20 PM)100% (Aug 26, 5:20 AM)30.42 "Hg (Aug 26, 5:20 AM)
Low50 °F (Aug 22, 6:20 AM)40% (Aug 26, 5:20 PM)29.86 "Hg (Aug 18, 4:20 AM)
Average67 °F73%30.12 "Hg
* Reported Aug 13 9:20 AM — Aug 28 9:20 AM, Memmingen, Weather by CustomWeather, © 2016

Note: Actual official high and low records may vary slightly from our data, if they occured in-between our weather recording intervals... More about our weather records

Advertising

Memmingen Weather History for the Previous 24 Hours

Scroll right to see more
 ConditionsComfort  
Time TempWeatherWind HumidityBarometerVisibility
9:20 AM
Sun, Aug 28
75 °FScattered clouds.10 mph65%30.12 "HgN/A
8:20 AM68 °FMild.7 mph83%30.09 "Hg4 mi
7:20 AM68 °FMild.7 mph83%30.09 "Hg4 mi
6:20 AM68 °FMild.8 mph78%30.09 "Hg4 mi
5:20 AM64 °FMild.6 mph83%30.07 "Hg4 mi
4:20 AM64 °FMild.3 mph83%30.07 "Hg3 mi
3:20 AM64 °FMild.3 mph83%30.09 "Hg3 mi
2:20 AM64 °FMild.3 mph83%30.09 "Hg4 mi
1:20 AM64 °FMild.5 mph88%30.09 "Hg4 mi
12:20 AM66 °FMild.2 mph83%30.09 "Hg4 mi
11:20 PM
Sat, Aug 27
68 °FMild.2 mph83%30.09 "Hg2 mi
10:20 PM70 °FMild.1 mph73%30.09 "Hg2 mi
9:20 PM73 °FMild.2 mph65%30.09 "Hg4 mi
8:20 PM77 °FWarm.3 mph57%30.07 "Hg2 mi
7:20 PM82 °FWarm.5 mph48%30.07 "Hg5 mi
6:20 PM84 °FWarm.7 mph43%30.07 "Hg5 mi
5:20 PM86 °FWarm.5 mph43%30.09 "Hg5 mi
4:20 PM86 °FWarm.7 mph40%30.09 "HgN/A
3:20 PM86 °FWarm.6 mph40%30.09 "Hg6 mi
2:20 PM84 °FWarm.7 mph43%30.12 "HgN/A
1:20 PM84 °FWarm.7 mph43%30.12 "Hg6 mi
12:20 PM82 °FWarm.5 mph45%30.12 "HgN/A
11:20 AM79 °FWarm.3 mph65%30.15 "Hg4 mi
10:20 AM73 °FMild.2 mph74%30.15 "Hg4 mi
Weather by CustomWeather, © 2016

See weather overviewHow to use our weather pages